date,batt_volt,AirTemp_C,Solar_kW,RH,Manual_BP,StationID,WS_ms,PTemp,WS_15min_max,Prog_Sig,Solar_Raw,Bar_mbar,Solar_MJ,Max_WS_2min,Pressure_Raw,Rain_mm,WD_15min_ave,Max_AirTemp_1min,WindDir,WS_15min_med,WS_15min_ave,Elevation_Correction
2021-05-01T00:03:35Z,13.44213,6.255928,0.0,95.25872,0,1156,3.234,7.267788,6.8992,43690,0.0,977.564,0.0,4.077,975.7632,0,49.142911887,6.324,37.60905,3.8612,4.02510643275,1.80078
2021-05-01T00:18:32Z,13.44897,5.886704,0.0,94.82574,0,1156,4.7628,7.136746,9.505999,43690,0.0,977.564,0.0,8.88,975.7632,0,52.8115828012,5.954,45.07682,4.7922,4.93343524118,1.80078
2021-05-01T00:33:31Z,13.45494,5.650223,0.0,94.18326,0,1156,5.488,6.897266,8.3496,43690,0.0,977.564,0.0,6.605,975.7632,0,54.387200133,5.65,68.36306,5.292,5.39126817059,1.80078
2021-05-01T00:48:35Z,13.4612,5.449368,0.0,93.61213,0,1156,5.8996,6.67812,8.3692,43690,0.0,977.564,0.0,6.762,975.7632,0,52.3345886135,5.517,59.7459,4.8412,4.85885146199,1.80078
2021-05-01T01:03:35Z,13.4626,5.318401,0.0,93.07911,0,1156,4.214,6.461231,8.1732,43690,0.0,977.6801,0.0,5.41,975.8793,0,50.516798993,5.42,73.62442,5.0372,5.09853642353,1.80078
2021-05-01T01:18:34Z,13.47381,5.115326,0.0,92.87651,0,1156,4.606,6.287274,7.898799,43690,0.0,977.6801,0.0,7.899,975.8793,0,47.5821325858,5.319,41.93045,4.5668,4.67558578698,1.80078
2021-05-01T01:33:35Z,13.46831,4.911796,0.0,92.46946,0,1156,5.8996,6.156231,8.741599,43690,0.0,977.6801,0.0,6.762,975.8793,0,36.5290760358,5.081,21.41078,4.6844,4.65934908284,1.80078
2021-05-01T01:48:37Z,13.47936,4.877876,0.0,91.79103,0,1156,3.3516,5.939342,9.212,43690,0.0,977.6801,0.0,6.899,975.8793,0,34.273958677,4.98,20.0139,4.8216,4.84131594024,1.80078
2021-05-01T02:03:33Z,13.47936,4.877876,0.0,91.07868,0,1156,2.254,5.765385,9.741199,43690,0.0,978.3407,0.0,5.723,976.54,0,16.371334745,4.81,313.5512,3.8024,3.99758330833,1.80078
2021-05-01T02:18:33Z,13.48488,4.606506,0.0,91.18045,0,1156,3.9788,5.614014,6.4092,43690,0.0,978.3407,0.0,4.41,976.54,0,343.035715994,4.64,304.0861,2.7244,2.9573964426,1.80078
2021-05-01T02:33:34Z,13.4904,4.504742,0.0,91.14653,0,1156,1.7248,5.485237,7.271599,43690,0.0,978.3407,0.0,4.606,976.54,0,315.918989711,4.573,23.28934,2.9792,3.10735384024,1.80078
2021-05-01T02:48:37Z,13.49593,4.538662,0.0,91.1126,0,1156,2.2344,5.397125,6.7228,43690,0.0,978.3407,0.0,4.861,976.54,0,284.61480095,4.539,262.4206,2.7244,2.81398352176,1.80078
2021-05-01T03:03:36Z,13.49593,4.369057,0.0,91.65535,0,1156,2.5284,5.311276,5.3704,43690,0.0,979.4805,0.0,3.646,977.6797,0,266.791738428,4.505,290.599,2.8616,2.92805443787,1.80078
2021-05-01T03:18:39Z,13.49593,4.369057,0.0,92.23201,0,1156,1.6268,5.268349,6.781599,43690,0.0,979.4805,0.0,5.233,977.6797,0,255.828171112,4.369,250.3304,4.018,3.84794117,1.80078
2021-05-01T03:33:36Z,13.49593,4.199452,0.0,92.70691,0,1156,3.234,5.225422,7.9772,43690,0.0,979.4805,0.0,7.977,977.6797,0,246.400317441,4.301,286.9141,4.3708,4.34540118343,1.80078
2021-05-01T03:48:38Z,13.50145,3.928082,0.0,92.74083,0,1156,3.6456,5.139572,7.3892,43690,0.0,979.4805,0.0,7.056,977.6797,0,284.111101447,4.098,290.31,3.5672,3.84425175882,1.80078
2021-05-01T04:03:36Z,13.50145,3.962002,0.0,92.91043,0,1156,1.9208,5.008534,8.643599,43690,0.0,979.7247,0.0,6.429,977.9239,0,282.175420225,4.03,241.5637,3.6848,3.96975380473,1.80078
2021-05-01T04:18:39Z,13.50698,3.860439,0.0,93.48753,0,1156,4.6256,4.922684,7.154,43690,0.0,979.7247,0.0,6.507,977.9239,0,251.009640728,3.928,233.0149,4.165,4.12879764706,1.80078
2021-05-01T04:33:36Z,13.50701,3.419666,0.0,93.82718,0,1156,6.5464,4.83683,8.0752,43690,0.0,979.7247,0.0,8.08,977.9239,0,248.937334912,3.589,236.2674,4.606,4.60855146154,1.80078
2021-05-01T04:48:38Z,13.50762,3.521702,0.0,94.30268,0,1156,3.0772,4.708054,8.741599,43690,0.0,979.7247,0.0,4.567,977.9239,0,251.663661862,3.59,265.3871,4.165,4.21388467588,1.80078
2021-05-01T05:03:40Z,13.51335,3.286865,0.0,94.10482,0,1156,0.392,4.599609,9.623599,43690,0.0,981.2007,0.0,7.017,979.3999,0,260.202932718,3.355,180.5242,3.7436,4.04232703471,1.80078
2021-05-01T05:18:37Z,13.52464,2.781879,0.0,93.6723,0,1156,5.3116,4.407574,9.2708,43690,0.0,981.2007,0.0,9.269999,979.3999,0,279.78442549,2.917,275.6164,3.7044,3.81770883964,1.80078
2021-05-01T05:33:39Z,13.53312,2.720173,0.0,93.27859,0,1156,7.6048,4.192944,8.7024,43690,0.0,981.2007,0.0,8.639999,979.3999,0,280.128044539,2.72,258.5269,3.9396,4.15727528176,1.80078
2021-05-01T05:48:39Z,13.53918,2.585648,0.0,92.80617,0,1156,2.94,3.93539,11.662,43690,0.0,981.2007,0.0,4.626,979.3999,0,284.099918263,2.687,290.5047,3.5476,3.83283763412,1.80078
2021-05-01T06:03:40Z,13.54472,2.687469,0.0,92.33116,0,1156,1.666,3.763687,9.1728,43690,0.0,981.5156,0.0,7.644001,979.7149,0,298.840658592,2.789,10.76925,3.7632,3.92962803977,1.80078
2021-05-01T06:18:42Z,13.55024,2.789268,0.0,92.33116,0,1156,3.9396,3.655243,8.682799,43690,0.0,981.5156,0.0,7.076,979.7149,0,268.938590384,2.857,235.6467,3.381,3.32554351529,1.80078
2021-05-01T06:33:39Z,13.54472,2.687469,0.0,92.50082,0,1156,6.3504,3.612316,7.8204,43690,0.0,981.5156,0.0,5.037,979.7149,0,261.854058355,2.789,277.495,3.4888,3.68445206509,1.80078
2021-05-01T06:48:40Z,13.54472,2.619602,0.0,92.53476,0,1156,2.744,3.569393,7.448,43690,0.0,981.5156,0.0,6.017,979.7149,0,266.657469884,2.687,309.0559,3.7436,3.71004941118,1.80078
2021-05-01T07:03:42Z,13.54472,2.721401,0.0,92.53476,0,1156,4.802,3.526466,7.252,43690,0.0,982.6558,0.0,7.115,980.855,0,269.376715822,2.789,260.0522,3.6652,3.70174822941,1.80078
2021-05-01T07:18:39Z,13.54472,2.755333,0.0,92.73836,0,1156,4.1944,3.506134,7.1736,43690,0.0,982.6558,0.0,4.371,980.855,0,260.024345226,2.755,233.0447,3.0184,3.04031952663,1.80078
2021-05-01T07:33:41Z,13.54472,2.687469,0.0,92.94195,0,1156,2.0384,3.506134,6.5268,43690,0.0,982.6558,0.0,4.292,980.855,0,254.340308598,2.755,255.306,3.4986,3.50574823529,1.80078
2021-05-01T07:48:43Z,13.54472,2.551739,0.0,93.11162,0,1156,1.8424,3.485798,7.5264,43690,0.0,982.6558,0.0,5.998,980.855,0,263.925511387,2.687,267.5449,3.4594,3.64052705882,1.80078
2021-05-01T08:03:40Z,13.54472,2.551739,0.0,93.00982,0,1156,3.2732,3.463207,8.526,43690,0.0,983.9587,0.0,5.214,982.1579,0,267.211639157,2.687,280.6511,3.9788,3.88578697041,1.80078
2021-05-01T08:18:42Z,13.55024,2.483871,0.0,93.00982,0,1156,1.7836,3.42028,7.1736,43690,0.0,983.9587,0.0,5.762,982.1579,0,266.782308118,2.518,213.8673,3.4006,3.48972234706,1.80078
2021-05-01T08:33:45Z,13.55577,2.517803,0.0,92.97588,0,1156,6.781599,3.377354,7.643999,43690,0.0,983.9587,0.0,3.43,982.1579,0,262.680442354,2.654,256.0288,3.3908,3.56731528235,1.80078
2021-05-01T08:48:41Z,13.55577,2.653538,0.0,92.80622,0,1156,5.7624,3.357021,8.33,43690,0.0,983.9587,0.0,4.841,982.1579,0,260.297288391,2.687,266.2439,3.4692,3.59225088757,1.80078
2021-05-01T09:03:43Z,13.55577,2.619602,0.0004827716,92.97588,0,1156,3.1752,3.357021,6.9776,43690,0.03379402,985.4247,2.413858e-06,5.096,983.6239,0,252.103906742,2.721,256.342,3.4692,3.52304235235,1.80078
2021-05-01T09:18:44Z,13.55024,2.755333,0.001448315,93.31522,0,1156,4.018,3.357021,7.859599,43690,0.1013821,985.4247,7.241575e-06,5.625,983.6239,0,250.790206274,2.789,226.4434,3.8318,3.85082352353,1.80078
2021-05-01T09:33:45Z,13.54472,2.857132,0.008207118,93.51882,0,1156,2.5872,3.399948,6.1348,43690,0.5744983,985.4247,4.103559e-05,4.978,983.6239,0,251.58362908,2.891,227.2385,3.43,3.50205882294,1.80078
2021-05-01T09:48:42Z,13.54472,2.924999,0.02510413,93.41702,0,1156,4.606,3.485798,7.467599,43690,1.757289,985.4247,0.0001255206,7.468001,983.6239,0,250.990254128,3.027,238.6341,3.7044,3.83591715385,1.80078
2021-05-01T10:03:44Z,13.54472,3.196461,0.04682885,93.34914,0,1156,4.8216,3.569393,8.251599,43690,3.278019,987.4606,0.0002341442,6.115,985.6598,0,250.546528738,3.264,261.6423,4.0278,4.16442352353,1.80078
2021-05-01T10:18:45Z,13.53919,3.332191,0.05262211,93.34914,0,1156,0.7252,3.72076,6.9972,43690,3.683548,987.4606,0.0002631106,6.017,985.6598,0,248.96845384,3.366,291.854,3.822,3.91365882294,1.80078
2021-05-01T10:33:43Z,13.53919,3.501858,0.03862173,92.97588,0,1156,7.938,3.849537,7.565599,43690,2.703521,987.4606,0.0001931087,5.272,985.6598,0,258.619933685,3.502,287.2765,4.0572,4.05383668047,1.80078
2021-05-01T10:48:46Z,13.53366,3.637588,0.0531043,92.43296,0,1156,4.6256,3.955723,8.643599,43690,3.717301,987.4606,0.0002655215,5.86,985.6598,0,256.024256231,3.638,264.4852,4.214,4.18287057647,1.80078
2021-05-01T11:03:44Z,13.53366,3.807251,0.06227046,92.5687,0,1156,3.6064,4.127426,6.468,43690,4.358932,988.9265,0.0003113523,5.645,987.1258,0,251.979720196,3.875,268.0027,3.7632,3.78071242604,1.80078
2021-05-01T11:18:48Z,13.52261,4.078243,0.09509096,92.70344,0,1156,2.8028,4.32172,6.4288,43690,6.656367,988.9265,0.0004754548,4.312,987.1258,0,253.479731784,4.146,236.2465,3.7534,3.83514352941,1.80078
2021-05-01T11:33:47Z,13.51583,4.244881,0.1201899,92.15422,0,1156,3.3712,4.556682,7.8204,43690,8.413293,988.9265,0.0006009495,6.272,987.1258,0,257.247868303,4.245,256.394,3.6848,3.90898224852,1.80078
2021-05-01T11:48:47Z,13.50808,4.711288,0.1814916,91.52584,0,1156,3.2732,4.793907,8.3496,43690,12.70441,988.9265,0.0009074578,7.134,987.1258,0,264.357236441,4.542,268.3634,4.3708,4.35653490533,1.80078
2021-05-01T12:03:47Z,13.49607,5.048828,0.210453,90.67434,0,1156,0.1568,5.116978,9.937199,43690,14.73171,989.2724,0.001052265,9.939999,987.4716,0,265.177514823,4.982,166.8357,3.8808,4.07772778698,1.80078
2021-05-01T12:18:44Z,13.48489,5.013607,0.1674936,90.1629,0,1156,3.5868,5.485237,7.2324,43690,11.72455,989.2724,0.0008374677,6.37,987.4716,0,270.185494518,5.217,269.4775,2.9204,2.99253727574,1.80078
2021-05-01T12:33:49Z,13.47936,5.25103,0.2065891,90.09501,0,1156,2.2932,5.808308,5.3312,43690,14.46124,989.2724,0.001032946,3.92,987.4716,0,264.415276294,5.387,317.8864,2.891,2.93227529412,1.80078
2021-05-01T12:48:46Z,13.46831,5.75985,0.3060255,89.68795,0,1156,4.0572,6.242084,5.096,43690,21.42179,989.2724,0.001530128,4.665,987.4716,0,251.702185901,5.929,217.2629,3.0968,3.06270295858,1.80078
2021-05-01T13:03:46Z,13.45137,5.861614,0.1727643,89.38266,0,1156,4.312,6.743641,7.0364,43690,12.0935,990.634,0.0008638213,6.488,988.8333,0,244.541921353,5.997,264.0343,4.116,4.13791952071,1.80078
2021-05-01T13:18:49Z,13.45032,5.956966,0.1336606,89.13278,0,1156,4.8804,6.98312,6.6444,43690,9.356243,990.634,0.000668303,5.802,988.8333,0,248.862166992,6.161,233.6557,3.7142,3.85474352941,1.80078
2021-05-01T13:33:48Z,13.44943,6.023445,0.1524786,89.77455,0,1156,3.7436,7.071232,5.9584,43690,10.6735,990.634,0.000762393,5.351,988.8333,0,246.259000029,6.159,250.0714,3.9004,3.8845112426,1.80078
2021-05-01T13:48:46Z,13.4434,6.395931,0.1650243,88.78987,0,1156,5.6056,7.202266,6.0956,43690,11.5517,990.634,0.0008251216,5.625,988.8333,0,242.483329985,6.498,238.1006,3.8024,3.78863333333,1.80078
2021-05-01T14:03:51Z,13.43706,6.799332,0.1814303,87.56222,0,1156,4.0376,7.398822,7.212799,43690,12.70012,991.3292,0.0009071513,7.076,989.5285,0,238.789307392,6.868001,238.1306,4.7726,4.6764447,1.80078
2021-05-01T14:18:47Z,13.43621,7.168732,0.1370377,87.14855,0,1156,3.7632,7.597637,6.879599,43690,9.592642,991.3292,0.0006851886,6.566,989.5285,0,232.524772586,7.101,235.4157,5.096,5.02824370199,1.80078
2021-05-01T14:33:51Z,13.42509,7.575462,0.1119463,85.65618,0,1156,2.9792,7.839374,6.0564,43690,7.836242,991.3292,0.0005597316,5.998,989.5285,0,240.555260294,7.609,276.3439,3.8808,3.91711764706,1.80078
2021-05-01T14:48:51Z,13.42509,7.202454,0.1032586,85.62227,0,1156,4.41,7.993008,6.566,43690,7.228102,991.3292,0.000516293,5.998,989.5285,0,237.918570197,7.270001,239.7484,4.704,4.66793136095,1.80078
2021-05-01T15:03:50Z,13.41956,7.575462,0.103259,84.50324,0,1156,6.4092,8.081112,6.2524,43690,7.228128,992.0146,0.0005162948,5.841,990.2138,0,234.223533633,7.643,226.7233,4.9,4.85581301775,1.80078
2021-05-01T15:18:48Z,13.41404,8.524937,0.406765,82.06174,0,1156,7.1736,8.325115,7.2912,43690,28.47355,992.0146,0.002033825,7.291,990.2138,0,239.764479647,8.519999,259.5629,4.5864,4.66723547929,1.80078
2021-05-01T15:33:48Z,13.39195,8.050198,0.3155313,85.82573,0,1156,7.056,8.833446,8.623999,43690,22.08719,992.0146,0.001577656,6.919,990.2138,0,232.118987127,7.915001,239.2428,6.487599,6.46057739645,1.80078
2021-05-01T15:48:48Z,13.35729,10.28151,0.5161401,77.20229,0,1156,1.3916,9.861408,9.113999,43690,36.12981,992.0146,0.0025807,5.664,990.2138,0,236.466296055,9.939999,227.7762,5.9192,5.94633836095,1.80078
2021-05-01T16:03:48Z,13.31573,11.39014,0.3309021,64.84785,0,1156,9.408,11.40448,9.8,43690,23.16315,993.157,0.00165451,9.8,991.3562,0,246.066423524,11.56,253.9408,5.9976,5.85007800592,1.80078
2021-05-01T16:18:52Z,13.32456,8.0947,0.1350224,84.80123,0,1156,3.5476,11.61007,14.798,43690,9.451566,993.157,0.0006751118,9.0,991.3562,0,248.244543291,8.4,288.0737,6.7032,6.85008461765,1.80078
2021-05-01T16:33:51Z,13.35399,9.049893,0.5276762,86.3712,0,1156,3.1164,10.85547,6.7032,43690,36.93733,993.157,0.002638381,2.881,991.3562,0,284.269078775,8.849999,273.477,2.2344,2.26884496746,1.80078
2021-05-01T16:48:50Z,13.33772,9.186424,0.6372023,86.10167,0,1156,6.958,11.01588,9.505999,43690,44.60416,993.157,0.003186011,8.979999,991.3562,0,242.348329145,9.53,220.5091,3.8024,4.49083544734,1.80078
2021-05-01T17:03:50Z,13.32071,7.761902,0.09936237,86.43922,0,1156,8.5064,11.47225,10.6036,43690,6.955366,993.9635,0.0004968118,10.6,992.1627,0,216.67257046,8.24,222.5993,8.231999,7.78955010059,1.80078
2021-05-01T17:18:54Z,13.34876,8.304958,0.2720389,87.52519,0,1156,6.6052,11.06107,11.2308,43690,19.04272,993.9635,0.001360194,9.84,992.1627,0,227.816312987,8.37,227.3438,7.1442,7.2044987,1.80078
2021-05-01T17:33:52Z,13.36533,8.135594,0.127344,83.59322,0,1156,8.7612,10.60696,14.8176,43690,8.914078,993.9635,0.0006367198,8.04,992.1627,0,235.620333524,8.41,220.9664,5.8212,6.54303659172,1.80078
2021-05-01T17:48:54Z,13.36533,9.627117,0.5870372,87.79661,0,1156,2.8028,10.1777,8.859199,43690,41.0926,993.9635,0.002935186,4.802,992.1627,0,240.166064552,9.8,239.4986,3.4692,4.00999760947,1.80078
2021-05-01T18:03:51Z,13.34325,8.0,0.3222193,87.18644,0,1156,8.192799,10.49399,11.5836,43690,22.55535,994.2075,0.001611096,10.54,992.4067,0,220.532074138,8.269999,219.5464,8.643599,8.21846646429,1.80078
2021-05-01T18:18:50Z,13.33773,9.322033,1.011035,86.0,0,1156,5.0176,10.74251,8.8984,43690,70.77247,994.2075,0.005055176,4.959,992.4067,0,230.418946046,9.05,243.7346,5.488,5.69791710059,1.80078
2021-05-01T18:33:51Z,13.3046,10.16682,0.4157515,78.50429,0,1156,6.5072,11.93314,6.5072,43690,29.1026,994.2075,0.002078757,6.174,992.4067,0,232.519483511,10.74,218.6924,4.2924,4.23104851479,1.80078
2021-05-01T18:48:50Z,13.27332,9.207935,0.797084,79.74262,0,1156,5.4488,12.74421,10.0548,43690,55.79588,994.2075,0.00398542,7.82,992.4067,0,223.19886024,9.479999,237.5133,6.86,7.15457968639,1.80078
2021-05-01T19:03:55Z,13.27804,9.779866,0.7980435,79.87144,0,1156,3.3124,13.11699,6.487599,43690,55.86304,994.4503,0.003990218,5.116,992.6495,0,232.8821373,9.809999,241.8241,5.096,4.83746666071,1.80078
2021-05-01T19:18:55Z,13.2725,10.62693,0.9223888,72.99223,0,1156,9.094401,13.44684,11.1328,43690,64.56722,994.4503,0.004611944,10.53,992.6495,0,232.808680333,10.93,229.9621,4.8608,5.81308157988,1.80078
2021-05-01T19:33:53Z,13.2725,10.79636,0.6942548,75.1271,0,1156,5.978,13.65921,11.3876,43690,48.59784,994.4503,0.003471274,8.15,992.6495,0,229.11511268,10.83,223.057,7.6244,7.95533828846,1.80078
2021-05-01T19:48:52Z,13.2725,11.33799,0.6445946,68.04401,0,1156,7.9772,13.80154,9.819599,43690,45.12162,994.4503,0.003222973,9.639999,992.6495,0,232.75822501,11.54,243.3607,7.369599,7.39660425185,1.80078
2021-05-01T20:03:52Z,13.27227,10.38897,0.1321009,69.77195,0,1156,7.565599,13.82413,10.8584,43690,9.247064,994.847,0.0006605046,8.679999,993.0462,0,236.630869683,10.56,266.3123,8.0948,7.98995723669,1.80078
2021-05-01T20:18:52Z,13.29457,10.28803,0.2834942,69.80682,0,1156,4.2728,13.3045,10.3684,43690,19.8446,994.847,0.001417471,8.269999,993.0462,0,243.637775099,10.42,243.7963,7.016799,6.97365666272,1.80078
2021-05-01T20:33:57Z,13.28354,11.10132,0.6509681,67.46865,0,1156,8.9572,13.11699,9.937199,43690,45.56777,994.847,0.003254841,8.21,993.0462,0,241.086763053,11.07,237.3243,6.8404,6.78033166471,1.80078
2021-05-01T20:48:57Z,13.28354,12.42291,0.4643599,57.50593,0,1156,7.2912,13.25932,10.8192,43690,32.50519,994.847,0.002321799,9.17,993.0462,0,246.254854905,12.22,268.7943,7.154,7.19354782249,1.80078
2021-05-01T21:03:54Z,13.28354,12.1857,0.4243372,57.3026,0,1156,6.389599,13.23446,8.682799,43690,29.7036,995.3419,0.002121686,8.45,993.5411,0,246.786550686,12.59,251.8804,5.88,5.9754332381,1.80078
2021-05-01T21:18:54Z,13.28354,12.89732,0.3563458,55.98102,0,1156,4.5864,13.0944,10.8192,43690,24.9442,995.3419,0.001781729,8.979999,993.5411,0,252.669244037,12.86,242.1603,5.9192,6.07901528994,1.80078
2021-05-01T21:33:57Z,13.28354,12.66011,0.297036,51.4063,0,1156,3.1164,13.00177,11.2112,43690,20.79252,995.3419,0.00148518,11.02,993.5411,0,251.842295217,12.76,242.1362,6.0172,6.13746738462,1.80078
2021-05-01T21:48:57Z,13.28354,12.72789,0.04146931,51.71128,0,1156,2.2736,13.02436,8.8984,43690,2.902852,995.3419,0.0002073466,6.409,993.5411,0,252.40256849,12.69,227.532,5.1548,5.08706979882,1.80078
2021-05-01T22:03:58Z,13.28354,11.98238,0.0356829,55.57438,0,1156,5.0764,13.04695,8.447599,43690,2.497803,995.9113,0.0001784145,7.879,994.1105,0,247.958566904,12.05,246.491,6.2132,6.08887328994,1.80078
2021-05-01T22:18:54Z,13.29457,11.50796,0.143696,58.3531,0,1156,4.998,12.85943,8.722,43690,10.05872,995.9113,0.00071848,6.88,994.1105,0,247.250026549,11.61,238.3588,5.7722,5.84313326786,1.80078
2021-05-01T22:33:59Z,13.30561,10.629,0.09499366,60.01604,0,1156,6.2328,12.41887,8.0948,43690,6.649556,995.9113,0.0004749683,6.958,994.1105,0,247.297390431,10.63,255.2834,6.272,6.19081648521,1.80078
2021-05-01T22:48:59Z,13.3186,10.12649,0.01928805,60.4636,0,1156,4.508,11.81791,7.154,43690,1.350164,995.9113,9.644026e-05,6.605,994.1105,0,245.047760749,10.06,239.6958,5.488,5.40623666272,1.80078
2021-05-01T23:03:58Z,13.3371,10.30165,0.02507883,59.11461,0,1156,3.1948,11.15144,6.958,43690,1.755518,997.3996,0.0001253942,5.841,995.5988,0,245.919720384,10.37,259.5535,4.4688,4.50092544379,1.80078
2021-05-01T23:18:59Z,13.34323,9.627034,0.008200154,64.23718,0,1156,2.7048,10.62955,6.664,43690,0.5740108,997.3996,4.100077e-05,4.018,995.5988,0,247.408825253,9.83,242.7474,3.6064,3.66972307692,1.80078
2021-05-01T23:33:56Z,13.36533,8.983051,0.002411821,63.45763,0,1156,4.5472,9.951778,5.7624,43690,0.1688275,997.3996,1.20591e-05,4.508,995.5988,0,245.986373942,9.019999,262.9166,3.6848,3.63871666667,1.80078
2021-05-01T23:48:59Z,13.37637,9.694916,0.0,57.83051,0,1156,4.9392,9.414074,6.6444,43690,0.0,997.3996,0.0,6.644,995.5988,0,254.831197755,9.8,260.4617,4.312,4.34336,1.80078
2021-05-02T00:03:58Z,13.38906,9.598378,0.0,56.20923,0,1156,4.3904,9.079701,6.762,43690,0.0,998.5641,0.0,5.958,996.7633,0,258.304466025,9.7,251.4142,4.0964,4.17433609467,1.80078
2021-05-02T00:18:59Z,13.39649,8.217487,0.0,66.66356,0,1156,2.9596,8.767926,6.6248,43690,0.0,998.5641,0.0,4.586,996.7633,0,252.854966438,8.42,255.121,3.5672,3.63435029586,1.80078
2021-05-02T00:33:57Z,13.41402,8.016228,0.0,65.78494,0,1156,3.2144,8.257336,5.0568,43690,0.0,998.5641,0.0,3.567,996.7633,0,249.023884304,8.22,244.0096,2.8224,2.94452307692,1.80078
2021-05-02T00:49:00Z,13.42508,7.371982,0.0,68.70124,0,1156,2.0384,7.685749,3.5672,43690,0.0,998.5641,0.0,2.94,996.7633,0,250.686613376,7.643,252.0993,2.4892,2.49358117647,1.80078
2021-05-02T01:04:00Z,13.44717,6.52599,0.0,73.65485,0,1156,1.5092,7.048642,3.0184,43690,0.0,999.176,0.0,2.764,997.3753,0,244.837476332,6.626,279.6287,2.156,2.13628538012,1.80078
2021-05-02T01:18:57Z,13.47238,6.53648,0.0,75.43522,0,1156,1.7444,6.395718,2.94,43690,0.0,999.176,0.0,2.94,997.3753,0,241.818939157,6.568,249.2035,1.8032,1.85439058824,1.80078
2021-05-02T01:34:02Z,13.49037,6.438171,0.0,72.15046,0,1156,1.3328,5.808308,3.2732,43690,0.0,999.176,0.0,3.273,997.3753,0,247.997628801,6.472,264.5876,1.8326,1.85427529294,1.80078
2021-05-02T01:48:59Z,13.49593,6.77747,0.0,58.71776,0,1156,2.7832,5.440052,4.5472,43690,0.0,999.176,0.0,4.273,997.3753,0,252.62053593,6.811,297.752,2.5872,2.65661666667,1.80078
2021-05-02T02:04:01Z,13.49593,6.77747,0.0,58.34463,0,1156,1.4308,5.225422,3.2928,43690,0.0,1000.729,0.0,2.979,998.928,0,259.196205549,6.913,270.9464,2.1952,2.17165680473,1.80078
2021-05-02T02:19:01Z,13.49593,6.947876,0.0,48.30475,0,1156,2.7244,5.05146,4.704,43690,0.0,1000.729,0.0,4.038,998.928,0,264.747768779,7.015,259.9202,2.5284,2.55542248521,1.80078
2021-05-02T02:34:48Z,13.50145,6.607895,0.0,49.62689,0,1156,2.2932,4.945274,4.4688,43690,0.0,1000.729,0.0,2.685,998.928,0,256.418907631,6.744001,253.4133,2.2442,2.26260487744,1.80078
2021-05-02T02:49:47Z,13.50145,6.709648,0.0,47.5916,0,1156,2.9596,4.859424,5.2528,43690,0.0,1000.729,0.0,4.998,998.928,0,261.451660305,6.913,294.9583,3.0184,3.16163076923,1.80078
2021-05-02T03:04:46Z,13.49593,6.607884,0.0,45.11534,0,1156,2.2736,4.902348,5.8996,43690,0.0,1001.218,0.0,4.038,999.4167,0,273.907691659,6.744001,251.3661,2.7244,2.73286627219,1.80078
2021-05-02T03:19:49Z,13.50174,6.404793,0.0,44.26773,0,1156,1.5876,4.859424,4.7824,43690,0.0,1001.218,0.0,4.234,999.4167,0,257.266781414,6.846,240.1451,2.6264,2.57889882353,1.80078
2021-05-02T03:34:46Z,13.5015,6.506481,0.0,39.75609,0,1156,2.94,4.83683,5.9388,43690,0.0,1001.218,0.0,4.332,999.4167,0,275.481826576,6.676,263.1693,2.8812,2.98035976331,1.80078
2021-05-02T03:49:49Z,13.50161,6.269619,0.0,40.43504,0,1156,3.3712,4.771313,4.312,43690,0.0,1001.218,0.0,3.998,999.4167,0,272.844541214,6.439,266.3519,2.6852,2.67920470588,1.80078
2021-05-02T04:04:46Z,13.50708,5.490593,0.0,46.91536,0,1156,2.1168,4.579277,3.8416,43690,0.0,1001.396,0.0,3.489,999.5949,0,262.152028774,5.422,272.8859,2.4304,2.40244970414,1.80078
2021-05-02T04:19:49Z,13.52028,4.920242,0.0,56.72707,0,1156,2.2932,4.29913,4.41,43690,0.0,1001.396,0.0,4.41,999.5949,0,258.252039357,5.224,255.4842,2.8812,2.87958588235,1.80078
2021-05-02T04:34:51Z,13.53329,5.062488,0.0,53.88496,0,1156,2.6264,4.02124,4.704,43690,0.0,1001.396,0.0,3.92,999.5949,0,259.677070608,5.164,251.8834,2.9988,3.00260470588,1.80078
2021-05-02T04:49:47Z,13.53366,4.960968,0.0,50.76348,0,1156,3.1948,3.806614,4.5472,43690,0.0,1001.396,0.0,2.705,999.5949,0,256.89549657,5.198,268.2436,2.6656,2.68369230769,1.80078
2021-05-02T05:04:50Z,13.53919,5.198498,0.0,64.94739,0,1156,2.0776,3.612316,4.2532,43690,0.0,1001.468,0.0,4.253,999.6674,0,256.377134777,5.063,252.8486,2.7734,2.79922588235,1.80078
2021-05-02T05:19:48Z,13.54472,4.75737,0.0,64.20087,0,1156,2.7244,3.506134,5.4684,43690,0.0,1001.468,0.0,5.194,999.6674,0,249.538184085,4.893,274.3389,2.7048,2.95403313609,1.80078
2021-05-02T05:34:51Z,13.53919,4.927032,0.0,70.8517,0,1156,5.1352,3.442875,6.487599,43690,0.0,1001.468,0.0,5.547,999.6674,0,241.18238326,5.029,241.5011,4.6452,4.50707763529,1.80078
2021-05-02T05:49:48Z,13.53919,5.062767,0.0,64.20087,0,1156,4.6844,3.526466,6.4484,43690,0.0,1001.468,0.0,6.076,999.6674,0,244.544315975,5.131,250.2948,4.9784,4.9126414142,1.80078
2021-05-02T06:04:48Z,13.54472,4.893101,0.0,68.88359,0,1156,4.6648,3.526466,5.1744,43690,0.0,1002.445,0.0,3.842,1000.645,0,255.218230866,4.927,232.3461,2.8812,2.89987218935,1.80078
2021-05-02T06:19:52Z,13.53919,5.266361,0.0,76.68814,0,1156,7.448,3.569393,8.3496,43690,0.0,1002.445,0.0,8.059999,1000.645,0,238.487316256,5.334,234.7553,5.9486,6.00163524118,1.80078
2021-05-02T06:34:53Z,13.53366,5.60569,0.0,79.1313,0,1156,8.859199,3.869873,9.7804,43690,0.0,1002.445,0.0,8.979999,1000.645,0,231.693275007,5.674,231.7437,8.085,8.16870328235,1.80078
2021-05-02T06:49:53Z,13.51156,5.707489,0.0,78.45265,0,1156,7.565599,4.29913,9.937199,43690,0.0,1002.445,0.0,8.82,1000.645,0,232.789558003,5.741,232.1292,8.4769995,8.48391743529,1.80078
2021-05-02T07:04:48Z,13.50361,5.39558,0.0,79.52709,0,1156,5.6252,4.642536,8.682799,43690,0.0,1002.242,0.0,5.88,1000.442,0,241.125891215,5.397,228.3381,5.6644,5.80125197041,1.80078
2021-05-02T07:19:50Z,13.4961,5.320347,0.0,78.53038,0,1156,3.9396,4.816498,7.7028,43690,0.0,1002.242,0.0,4.567,1000.442,0,244.287111546,5.321,262.3088,4.2336,4.44850822941,1.80078